Tracking 33850 objects as of 19-Apr-2026
HD Live streaming from Space Station
objects crossing your sky now

CZ-4B DEB

Track CZ-4B DEB now!
10-day predictions


NORAD ID: 38310
Int'l Code: 2011-079D
Perigee: 622.9 km
Apogee: 765.5 km
Inclination: 98.7 °
Period: 98.5 minutes
Semi major axis: 7065 km
RCS: 0.0012 m2 (small)
Launch date: December 22, 2011
Source: People's Republic of China (PRC)
Launch site: Taiyaun Space Center, China (TSC)

Note: This is SATELLITE DEBRIS
Your satellite tracking list
Your tracking list is empty




NASA's NSSDC Master Catalog

Two Line Element Set (TLE):
1 38310U 11079D   26108.33334608  .00003223  00000-0  60985-3 0  9991
2 38310  98.7006  55.0832 0100943  13.9644 136.9492 14.61894475753732
Source of the keplerian elements: AFSPC